Notices

What's New in latest Release from April 7th, 2021:

- Updated Glossary, including Speed of Maximum Gust, and Total Hourly Precipitation

- Updated national and regional climate services offices contacts and prices information

- Addition of station inventory lists for 1981-2010, 1971-2000, and 1961-1990 Normals.

If you haven't already, please take our survey and provide feedback about our website: https://eccc.sondage-survey.ca/f/LanguageSelection.aspx?s=442ca660-fcf1-47c0-95a9-59707d6fd709

Hourly Data Report for April 09, 2017

KUGAARUK CLIMATE
NUNAVUT

68°32'15.060" N
89°47'47.020" W
15.80 m
2303094
71407
NBB

Download Data

Hourly Data (April 2017)
Hourly Data Report for April 9, 2017
TIME
LST
Temp Definition
°C
Dew Point Definition
°C
Rel Hum Definition
%
Precip. Amount Definition
mm

Wind Dir Definition
10's deg

Wind Spd Definition
km/h
Visibility Definition
km
Stn Press Definition
kPa
Hmdx Definition


Wind Chill Definition


Weather Definition


00:00 -21.1 -23.5 81 0.0 23 49   99.98   -37 LegendNANA
01:00 -21.4 -23.9 80 0.0 24 47   99.96   -37 LegendNANA
02:00 -22.2 -24.7 80 0.2 24 50   99.90   -38 LegendNANA
03:00 -22.9 -25.5 79 0.0 24 54   99.86   -40 LegendNANA
04:00 -23.1 -25.7 79 0.0 23 51   99.90   -40 LegendNANA
05:00 -22.8 -25.4 79 0.0 23 45   99.94   -39 LegendNANA
06:00 -22.8 -25.4 79 0.0 22 44   99.94   -38 LegendNANA
07:00 -22.5 -25.0 80 0.0 23 42   99.94   -38 LegendNANA
08:00 -22.0 -24.4 81 0.0 22 26   100.00   -34 LegendNANA
09:00 -21.7 -24.1 81 0.0 22 27   100.00   -34 LegendNANA
10:00 -21.2 -23.6 81 0.0 23 29   99.98   -34 LegendNANA
11:00 -20.9 -23.3 81 0.0 23 24   100.00   -33 LegendNANA
12:00 -20.5 -23.0 80 0.0 23 20   100.00   -31 LegendNANA
13:00 -20.2 -22.9 79 0.0 23 19   100.00   -30 LegendNANA
14:00 -19.8 -22.6 78 0.0 24 12   100.01   -28 LegendNANA
15:00 -19.7 -23.5 72 0.0 23 13   100.03   -28 LegendNANA
16:00 -19.7 -23.7 70 0.0 11 3   100.02   -22 LegendNANA
17:00 -21.2 -25.0 72 0.0 11 8   100.05   -28 LegendNANA
18:00 -22.3 -25.6 74 0.0 16 9   100.03   -29 LegendNANA
19:00 -24.5 -27.6 75 0.0 5 7   100.07   -31 LegendNANA
20:00 -25.2 -28.1 77 0.0 8 6   100.08   -31 LegendNANA
21:00 -27.7 -30.9 74 0.0 6 9   100.09   -36 LegendNANA
22:00 -27.8 -30.9 74 0.0 8 5   100.07   -33 LegendNANA
23:00 -28.7 -31.9 74 0.0   0   100.08     LegendNANA

Notes on Data Quality.

Legend

  • E = Estimated
  • M = Missing
  • NA = Not Available*
  • [empty] = Indicates an unobserved value
Date modified: